Retour au catalogue

COSMOS 2491 DEB

ActifPO
NORAD 57557·DEBRIS·🇷🇺 Russia

Lancé Dec 25, 2013 depuis Plesetsk Cosmodrome

Loading…

Prochains Passages (prochaines 24 heures)

TLE

FraisSource: Space-Track

Époque: Sep 14, 2026, 07:34 UTC

1 57557U 13076AU  26257.31530345  .00000418  00000-0  27567-2 0  9994
2 57557  82.4752 110.5379 0075071 263.8184  95.4342 12.47284454152294

Suivez COSMOS 2491 DEB en temps réel avec AllMySat

Download on the App Store